Hourly Data Report for October 01, 2017

All times are specified in Local Standard Time (LST). Add 1 hour to adjust for Daylight Saving Time where and when it is observed.

PAULATUK
NORTHWEST TERRITORIES

69°21'28.004" N
124°04'57.005" W
6.30 m
2203058
71984
ZPK

Download Data

Hourly Data (October 2017)
Hourly Data Report for October 1, 2017
Temp Definition
°C
Dew Point Temp Definition
°C
Rel Hum Definition
%
Wind Dir Definition
10's deg

Wind Spd Definition
km/h
Visibility Definition
km
Stn Press Definition
kPa
Hmdx Definition


Wind Chill Definition


Weather Definition


TIME
00:00 1.1 -1.3 84 28 14   101.63     LegendNANA
01:00 0.4 -2.1 83 25 16   101.65     LegendNANA
02:00 -0.3 -2.6 85 24 16   101.67   -5 LegendNANA
03:00 -1.1 -3.7 82 23 13   101.67   -5 LegendNANA
04:00 -1.3 -3.8 83 23 12   101.67   -5 LegendNANA
05:00 -0.7 -3.1 84 22 17   101.66   -6 LegendNANA
06:00 -0.4 -3.1 82 21 19   101.64   -6 LegendNANA
07:00 -0.2 -2.8 82 24 20   101.67   -5 LegendNANA
08:00 -0.4 -2.8 84 23 25   101.63   -6 LegendNANA
09:00 0.3 -2.9 80 22 26   101.59     LegendNANA
10:00 0.5 -2.5 80 22 35   101.56     LegendNANA
11:00 1.4 -3.2 71 22 29   101.52     LegendNANA
12:00 1.4 -2.6 75 22 32   101.47     LegendNANA
13:00 1.7 -1.9 77 21 38   101.46     LegendNANA
14:00 1.2 -0.8 87 24 35   101.49     LegendNANA
15:00 0.8 0.1 95 25 34   101.52     LegendNANA
16:00 1.8 0.4 91 26 28   101.54     LegendNANA
17:00 2.2 0.5 88 28 37   101.58     LegendNANA
18:00 1.6 -0.7 84 29 37   101.69     LegendNANA
19:00 1.5 -0.5 87 28 38   101.76     LegendNANA
20:00 0.8 -0.5 91 29 38   101.81     LegendNANA
21:00 0.2 -0.7 94 30 40   101.85     LegendNANA
22:00 0.7 -1.9 83 28 44   101.88     LegendNANA
23:00 0.5 -1.8 85 29 41   101.94     LegendNANA

Notes on Data Quality.

Legend

  • E = Estimated
  • M = Missing
  • NA = Not Available
  • ‡ = Partner data that is not subject to review by the National Climate Archives
Date modified: